Location: Unspecified
(56.5167°N, 0.0000°E)
Time: 10:50:57
(UTC+01:00)

ISS - Visible Passes

Search period start: 08 December 2016 00:00
Search period end: 18 December 2016 00:00
Orbit: 401 x 410 km, 51.6° (Epoch: 08 December)

Date Brightness Start Highest point End Pass type
(mag) Time Alt. Az. Time Alt. Az. Time Alt. Az.
08 Dec -1.6 18:02:32 10° SW 18:05:17 24° SSE 18:07:15 15° ESE visible
08 Dec -1.1 19:38:14 10° WSW 19:39:56 24° SW 19:39:56 24° SW visible
09 Dec -1.2 17:11:05 10° SSW 17:13:32 19° SSE 17:15:59 10° ESE visible
09 Dec -2.2 18:46:27 10° WSW 18:49:29 34° S 18:50:02 32° SSE visible
09 Dec 0.2 20:22:38 10° WSW 20:22:42 10° WSW 20:22:42 10° WSW visible
10 Dec -1.9 17:54:41 10° SW 17:57:39 31° S 18:00:08 13° ESE visible
10 Dec -1.4 19:30:42 10° WSW 19:32:49 27° SW 19:32:49 27° SW visible
11 Dec -1.5 17:03:00 10° SW 17:05:50 26° SSE 17:08:39 10° ESE visible
11 Dec -2.1 18:38:49 10° WSW 18:41:52 35° S 18:42:56 27° SE visible
11 Dec 0.1 20:15:15 10° WSW 20:15:37 12° WSW 20:15:37 12° WSW visible
12 Dec -2.0 17:46:58 10° WSW 17:50:00 35° S 17:53:03 10° ESE visible
12 Dec -1.5 19:23:12 10° WSW 19:25:46 26° SSW 19:25:46 26° SSW visible
13 Dec -1.7 18:31:13 10° WSW 18:34:12 31° S 18:35:59 18° SE visible
13 Dec -0.1 20:08:07 10° WSW 20:08:40 12° WSW 20:08:40 12° WSW visible
14 Dec -1.8 17:39:17 10° WSW 17:42:19 34° S 17:45:21 10° ESE visible
14 Dec -1.1 19:15:48 10° WSW 19:18:16 19° SSW 19:18:57 18° S visible
15 Dec -1.2 18:23:41 10° WSW 18:26:26 24° SSW 18:29:11 10° SE visible
16 Dec -1.4 17:31:38 10° WSW 17:34:33 29° SSW 17:37:29 10° SE visible
16 Dec -0.3 19:08:45 10° WSW 19:10:21 13° SSW 19:11:56 10° S visible
17 Dec -0.5 18:16:15 10° WSW 18:18:34 18° SSW 18:20:51 10° SSE visible
